contact:dominique.lefevre@mio.osupytheas.fr, maurice.libes@osupytheas.fr, didier.mallarino@osupytheas.fr
Project:EMSO http://www.emso-fr.org/EMSO-France
Depth: 2436.0 m
Title:EMSO Ligure Ouest : Data MII capteur CSTAR
DateTime,Latitude,Longitude,Instrument_Serial,Reference_Counts,Signal_Counts,Corrected_Signal_raw_counts,Calculated_Beam_c_inverse_meters,Internal_thermistor_counts
DateTime,Latitude,Longitude,Instrument_Serial,Reference_Counts,Signal_Counts,Corrected_Signal_raw_counts,Calculated_Beam_c_inverse_meters,Internal_thermistor_counts
2023-03-02T00:02:03,42.805,6.029,CST-1368DR,4367,4856,11814,01.116,551
2023-03-02T00:05:05,42.805,6.029,CST-1368DR,4367,4844,11783,01.127,551
2023-03-02T00:08:06,42.805,6.029,CST-1368DR,4367,4863,11831,01.110,551
2023-03-02T00:11:08,42.805,6.029,CST-1368DR,4367,4858,11817,01.115,551
2023-03-02T00:14:09,42.805,6.029,CST-1368DR,4367,4861,11825,01.112,551
2023-03-02T00:17:11,42.805,6.029,CST-1368DR,4367,4861,11824,01.113,551
2023-03-02T00:20:13,42.805,6.029,CST-1368DR,4367,4858,11817,01.115,551
2023-03-02T00:23:14,42.805,6.029,CST-1368DR,4367,4860,11823,01.113,551
2023-03-02T00:26:16,42.805,6.029,CST-1368DR,4367,4861,11825,01.112,551
2023-03-02T00:29:17,42.805,6.029,CST-1368DR,4367,4858,11819,01.114,551
2023-03-02T00:32:19,42.805,6.029,CST-1368DR,4367,4857,11815,01.116,551
2023-03-02T00:35:20,42.805,6.029,CST-1368DR,4367,4861,11825,01.112,551
2023-03-02T00:38:22,42.805,6.029,CST-1368DR,4367,4859,11819,01.114,551
2023-03-02T00:41:24,42.805,6.029,CST-1368DR,4367,4859,11820,01.114,551
2023-03-02T00:44:25,42.805,6.029,CST-1368DR,4367,4860,11823,01.113,551
2023-03-02T00:47:27,42.805,6.029,CST-1368DR,4367,4858,11819,01.114,551
2023-03-02T00:50:28,42.805,6.029,CST-1368DR,4367,4856,11814,01.116,551
2023-03-02T00:53:30,42.805,6.029,CST-1368DR,4367,4855,11810,01.117,551
2023-03-02T00:56:32,42.805,6.029,CST-1368DR,4367,4859,11819,01.114,551
2023-03-02T00:59:33,42.805,6.029,CST-1368DR,4367,4858,11819,01.114,551
2023-03-02T01:02:35,42.805,6.029,CST-1368DR,4367,4858,11817,01.115,551
2023-03-02T01:05:36,42.805,6.029,CST-1368DR,4367,4859,11820,01.114,551
2023-03-02T01:08:38,42.805,6.029,CST-1368DR,4367,4857,11816,01.115,551
2023-03-02T01:11:39,42.805,6.029,CST-1368DR,4367,4859,11819,01.114,551
2023-03-02T01:14:41,42.805,6.029,CST-1368DR,4367,4855,11809,01.118,551
2023-03-02T01:17:43,42.805,6.029,CST-1368DR,4367,4855,11811,01.117,551
2023-03-02T01:20:44,42.805,6.029,CST-1368DR,4367,4859,11819,01.114,551
2023-03-02T01:23:46,42.805,6.029,CST-1368DR,4367,4854,11808,01.118,551
2023-03-02T01:26:47,42.805,6.029,CST-1368DR,4367,4860,11822,01.113,551
2023-03-02T01:29:49,42.805,6.029,CST-1368DR,4367,4856,11812,01.117,551
2023-03-02T01:32:51,42.805,6.029,CST-1368DR,4367,4856,11814,01.116,551
2023-03-02T01:35:52,42.805,6.029,CST-1368DR,4367,4858,11819,01.114,551
2023-03-02T01:38:54,42.805,6.029,CST-1368DR,4367,4857,11815,01.116,551
2023-03-02T01:41:55,42.805,6.029,CST-1368DR,4367,4854,11808,01.118,551
2023-03-02T01:44:57,42.805,6.029,CST-1368DR,4367,4857,11815,01.116,551
2023-03-02T01:47:58,42.805,6.029,CST-1368DR,4367,4856,11813,01.116,551
2023-03-02T01:51:00,42.805,6.029,CST-1368DR,4367,4857,11814,01.116,551
2023-03-02T01:54:02,42.805,6.029,CST-1368DR,4367,4857,11814,01.116,551
2023-03-02T01:57:03,42.805,6.029,CST-1368DR,4367,4857,11816,01.115,551
2023-03-02T02:00:05,42.805,6.029,CST-1368DR,4367,4858,11817,01.115,551
2023-03-02T02:03:06,42.805,6.029,CST-1368DR,4367,4862,11827,01.112,551
2023-03-02T02:06:08,42.805,6.029,CST-1368DR,4367,4857,11816,01.115,551
2023-03-02T02:09:09,42.805,6.029,CST-1368DR,4367,4859,11820,01.114,551
2023-03-02T02:12:11,42.805,6.029,CST-1368DR,4367,4856,11814,01.116,551
2023-03-02T02:15:13,42.805,6.029,CST-1368DR,4367,4857,11816,01.115,551
2023-03-02T02:18:14,42.805,6.029,CST-1368DR,4367,4855,11811,01.117,551
2023-03-02T02:21:16,42.805,6.029,CST-1368DR,4367,4858,11817,01.115,551
2023-03-02T02:24:17,42.805,6.029,CST-1368DR,4367,4857,11816,01.115,551
2023-03-02T02:27:19,42.805,6.029,CST-1368DR,4367,4857,11816,01.115,551
2023-03-02T02:30:20,42.805,6.029,CST-1368DR,4367,4860,11823,01.113,551
2023-03-02T02:33:22,42.805,6.029,CST-1368DR,4367,4844,11785,01.126,551
2023-03-02T02:36:24,42.805,6.029,CST-1368DR,4367,4846,11789,01.125,551
2023-03-02T02:39:25,42.805,6.029,CST-1368DR,4367,4849,11796,01.122,551
2023-03-02T02:42:27,42.805,6.029,CST-1368DR,4367,4845,11786,01.126,551
2023-03-02T02:45:28,42.805,6.029,CST-1368DR,4367,4858,11817,01.115,551
2023-03-02T02:48:30,42.805,6.029,CST-1368DR,4367,4858,11819,01.114,551
2023-03-02T02:51:32,42.805,6.029,CST-1368DR,4367,4860,11822,01.113,551
2023-03-02T02:54:33,42.805,6.029,CST-1368DR,4367,4856,11813,01.116,551
2023-03-02T02:57:35,42.805,6.029,CST-1368DR,4367,4861,11824,01.113,551
2023-03-02T03:00:36,42.805,6.029,CST-1368DR,4367,4857,11816,01.115,551
2023-03-02T03:03:38,42.805,6.029,CST-1368DR,4367,4857,11815,01.116,551
2023-03-02T03:06:39,42.805,6.029,CST-1368DR,4367,4858,11817,01.115,551
2023-03-02T03:09:41,42.805,6.029,CST-1368DR,4367,4857,11816,01.115,551
2023-03-02T03:12:43,42.805,6.029,CST-1368DR,4367,4864,11831,01.110,551
2023-03-02T03:15:44,42.805,6.029,CST-1368DR,4367,4855,11811,01.117,551
2023-03-02T03:18:46,42.805,6.029,CST-1368DR,4367,4857,11816,01.115,551
2023-03-02T03:21:47,42.805,6.029,CST-1368DR,4367,4858,11818,01.115,551
2023-03-02T03:24:49,42.805,6.029,CST-1368DR,4367,4860,11823,01.113,551
2023-03-02T03:27:50,42.805,6.029,CST-1368DR,4367,4861,11826,01.112,551
2023-03-02T03:30:52,42.805,6.029,CST-1368DR,4367,4855,11810,01.117,551
2023-03-02T03:33:54,42.805,6.029,CST-1368DR,4367,4859,11819,01.114,551
2023-03-02T03:36:55,42.805,6.029,CST-1368DR,4367,4858,11819,01.114,551
2023-03-02T03:39:57,42.805,6.029,CST-1368DR,4367,4860,11823,01.113,551
2023-03-02T03:42:58,42.805,6.029,CST-1368DR,4367,4858,11819,01.114,551
2023-03-02T03:46:00,42.805,6.029,CST-1368DR,4367,4858,11817,01.115,551
2023-03-02T03:49:01,42.805,6.029,CST-1368DR,4367,4859,11819,01.114,551
2023-03-02T03:52:03,42.805,6.029,CST-1368DR,4367,4857,11814,01.116,551
2023-03-02T03:55:05,42.805,6.029,CST-1368DR,4367,4856,11813,01.116,551
2023-03-02T03:58:06,42.805,6.029,CST-1368DR,4367,4859,11820,01.114,551
2023-03-02T04:01:08,42.805,6.029,CST-1368DR,4367,4857,11815,01.116,551
2023-03-02T04:04:09,42.805,6.029,CST-1368DR,4367,4855,11809,01.118,551
2023-03-02T04:07:11,42.805,6.029,CST-1368DR,4367,4861,11825,01.112,551
2023-03-02T04:10:13,42.805,6.029,CST-1368DR,4367,4862,11828,01.111,551
2023-03-02T04:13:14,42.805,6.029,CST-1368DR,4367,4859,11820,01.114,551
2023-03-02T04:16:16,42.805,6.029,CST-1368DR,4367,4858,11817,01.115,551
2023-03-02T04:19:17,42.805,6.029,CST-1368DR,4367,4856,11813,01.116,551
2023-03-02T04:22:19,42.805,6.029,CST-1368DR,4367,4858,11817,01.115,551
2023-03-02T04:25:20,42.805,6.029,CST-1368DR,4367,4853,11805,01.119,551
2023-03-02T04:28:22,42.805,6.029,CST-1368DR,4367,4861,11824,01.113,551
2023-03-02T04:31:24,42.805,6.029,CST-1368DR,4367,4855,11811,01.117,551
2023-03-02T04:34:25,42.805,6.029,CST-1368DR,4367,4858,11817,01.115,551
2023-03-02T04:37:27,42.805,6.029,CST-1368DR,4367,4854,11807,01.118,551
2023-03-02T04:40:28,42.805,6.029,CST-1368DR,4367,4856,11813,01.116,551
2023-03-02T04:43:30,42.805,6.029,CST-1368DR,4367,4858,11817,01.115,551
2023-03-02T04:46:31,42.805,6.029,CST-1368DR,4367,4859,11820,01.114,551
2023-03-02T04:49:33,42.805,6.029,CST-1368DR,4367,4860,11822,01.113,551
2023-03-02T04:52:35,42.805,6.029,CST-1368DR,4367,4860,11823,01.113,551
2023-03-02T04:55:36,42.805,6.029,CST-1368DR,4367,4851,11802,01.120,551
2023-03-02T04:58:38,42.805,6.029,CST-1368DR,4367,4861,11824,01.113,551
2023-03-02T05:01:39,42.805,6.029,CST-1368DR,4367,4860,11822,01.113,551
2023-03-02T05:04:41,42.805,6.029,CST-1368DR,4367,4857,11815,01.116,551
2023-03-02T05:07:43,42.805,6.029,CST-1368DR,4367,4858,11817,01.115,551
2023-03-02T05:10:44,42.805,6.029,CST-1368DR,4367,4858,11817,01.115,551
2023-03-02T05:13:46,42.805,6.029,CST-1368DR,4367,4859,11819,01.114,551
2023-03-02T05:16:47,42.805,6.029,CST-1368DR,4367,4856,11813,01.116,551
2023-03-02T05:19:49,42.805,6.029,CST-1368DR,4367,4810,11702,01.154,551
2023-03-02T05:22:50,42.805,6.029,CST-1368DR,4366,4714,11469,01.235,551
2023-03-02T05:25:52,42.805,6.029,CST-1368DR,4367,4850,11797,01.122,551
2023-03-02T05:28:54,42.805,6.029,CST-1368DR,4366,4738,11529,01.214,551
2023-03-02T05:31:55,42.805,6.029,CST-1368DR,4366,4736,11524,01.215,551
2023-03-02T05:34:57,42.805,6.029,CST-1368DR,4367,4787,11646,01.173,551
2023-03-02T05:37:58,42.805,6.029,CST-1368DR,4366,4689,11409,01.256,551
2023-03-02T05:41:00,42.805,6.029,CST-1368DR,4367,4837,11766,01.132,551
2023-03-02T05:44:01,42.805,6.029,CST-1368DR,4367,4830,11750,01.138,551
2023-03-02T05:47:03,42.805,6.029,CST-1368DR,4367,4830,11749,01.138,551
2023-03-02T05:50:05,42.805,6.029,CST-1368DR,4367,4825,11737,01.142,551
2023-03-02T05:53:06,42.805,6.029,CST-1368DR,4367,4827,11741,01.141,551
2023-03-02T05:56:08,42.805,6.029,CST-1368DR,4367,4828,11744,01.140,551
2023-03-02T05:59:09,42.805,6.029,CST-1368DR,4367,4817,11717,01.149,551
2023-03-02T06:02:11,42.805,6.029,CST-1368DR,4367,4807,11694,01.157,551
2023-03-02T06:05:13,42.805,6.029,CST-1368DR,4367,4813,11708,01.152,551
2023-03-02T06:08:14,42.805,6.029,CST-1368DR,4367,4822,11730,01.145,551
2023-03-02T06:11:16,42.805,6.029,CST-1368DR,4367,4821,11727,01.146,551
2023-03-02T06:14:17,42.805,6.029,CST-1368DR,4367,4820,11724,01.147,551
2023-03-02T06:17:19,42.805,6.029,CST-1368DR,4367,4819,11723,01.147,551
2023-03-02T06:20:20,42.805,6.029,CST-1368DR,4367,4827,11741,01.141,551
2023-03-02T06:23:22,42.805,6.029,CST-1368DR,4367,4819,11724,01.147,551
2023-03-02T06:26:24,42.805,6.029,CST-1368DR,4367,4821,11728,01.145,551
2023-03-02T06:29:25,42.805,6.029,CST-1368DR,4367,4821,11728,01.145,551
2023-03-02T06:32:27,42.805,6.029,CST-1368DR,4367,4819,11723,01.147,551
2023-03-02T06:35:28,42.805,6.029,CST-1368DR,4367,4821,11729,01.145,551
2023-03-02T06:38:30,42.805,6.029,CST-1368DR,4367,4824,11734,01.143,551
2023-03-02T06:41:31,42.805,6.029,CST-1368DR,4367,4821,11729,01.145,551
2023-03-02T06:44:33,42.805,6.029,CST-1368DR,4367,4819,11723,01.147,551
2023-03-02T06:47:35,42.805,6.029,CST-1368DR,4367,4823,11732,01.144,551
2023-03-02T06:50:36,42.805,6.029,CST-1368DR,4367,4820,11726,01.146,551
2023-03-02T06:53:38,42.805,6.029,CST-1368DR,4367,4824,11734,01.143,551
2023-03-02T06:56:39,42.805,6.029,CST-1368DR,4367,4823,11732,01.144,551
2023-03-02T06:59:41,42.805,6.029,CST-1368DR,4367,4821,11727,01.146,551
2023-03-02T07:02:43,42.805,6.029,CST-1368DR,4367,4822,11729,01.145,551
2023-03-02T07:05:44,42.805,6.029,CST-1368DR,4367,4818,11719,01.148,551
2023-03-02T07:08:46,42.805,6.029,CST-1368DR,4367,4822,11730,01.145,551
2023-03-02T07:11:47,42.805,6.029,CST-1368DR,4367,4823,11733,01.144,551
2023-03-02T07:14:49,42.805,6.029,CST-1368DR,4367,4825,11738,01.142,551
2023-03-02T07:17:50,42.805,6.029,CST-1368DR,4367,4821,11727,01.146,551
2023-03-02T07:20:52,42.805,6.029,CST-1368DR,4367,4818,11721,01.148,551
2023-03-02T07:23:54,42.805,6.029,CST-1368DR,4367,4819,11724,01.147,551
2023-03-02T07:26:55,42.805,6.029,CST-1368DR,4367,4821,11729,01.145,551
2023-03-02T07:29:57,42.805,6.029,CST-1368DR,4367,4822,11729,01.145,551
2023-03-02T07:32:58,42.805,6.029,CST-1368DR,4367,4822,11730,01.145,551
2023-03-02T07:36:00,42.805,6.029,CST-1368DR,4367,4818,11721,01.148,551
2023-03-02T07:39:01,42.805,6.029,CST-1368DR,4367,4823,11732,01.144,551
2023-03-02T07:42:03,42.805,6.029,CST-1368DR,4367,4824,11735,01.143,551
2023-03-02T07:45:05,42.805,6.029,CST-1368DR,4367,4821,11729,01.145,551
2023-03-02T07:48:06,42.805,6.029,CST-1368DR,4367,4819,11724,01.147,551
2023-03-02T07:51:08,42.805,6.029,CST-1368DR,4367,4826,11740,01.141,551
2023-03-02T07:54:09,42.805,6.029,CST-1368DR,4367,4823,11733,01.144,551
2023-03-02T07:57:11,42.805,6.029,CST-1368DR,4367,4823,11733,01.144,551
2023-03-02T08:00:13,42.805,6.029,CST-1368DR,4367,4819,11722,01.147,551
2023-03-02T08:03:14,42.805,6.029,CST-1368DR,4367,4818,11720,01.148,551
2023-03-02T08:06:16,42.805,6.029,CST-1368DR,4367,4820,11726,01.146,551
2023-03-02T08:09:17,42.805,6.029,CST-1368DR,4367,4816,11716,01.149,551
2023-03-02T08:12:19,42.805,6.029,CST-1368DR,4367,4805,11688,01.159,551
2023-03-02T08:15:20,42.805,6.029,CST-1368DR,4367,4801,11679,01.162,551
2023-03-02T08:18:22,42.805,6.029,CST-1368DR,4367,4806,11691,01.158,551
2023-03-02T08:21:24,42.805,6.029,CST-1368DR,4367,4799,11675,01.163,551
2023-03-02T08:24:25,42.805,6.029,CST-1368DR,4367,4805,11689,01.159,551
2023-03-02T08:27:27,42.805,6.029,CST-1368DR,4367,4805,11688,01.159,551
2023-03-02T08:30:28,42.805,6.029,CST-1368DR,4367,4805,11688,01.159,551
2023-03-02T08:33:30,42.805,6.029,CST-1368DR,4367,4803,11683,01.161,551
2023-03-02T08:36:31,42.805,6.029,CST-1368DR,4367,4801,11678,01.162,551
2023-03-02T08:39:33,42.805,6.029,CST-1368DR,4367,4806,11692,01.158,551
2023-03-02T08:42:35,42.805,6.029,CST-1368DR,4366,4796,11670,01.165,551
2023-03-02T08:45:36,42.805,6.029,CST-1368DR,4367,4799,11674,01.164,551
2023-03-02T08:48:38,42.805,6.029,CST-1368DR,4367,4795,11665,01.167,551
2023-03-02T08:51:39,42.805,6.029,CST-1368DR,4367,4797,11669,01.165,551
2023-03-02T08:54:41,42.805,6.029,CST-1368DR,4366,4784,11641,01.175,551
2023-03-02T08:57:43,42.805,6.029,CST-1368DR,4367,4795,11664,01.167,551
2023-03-02T09:00:44,42.805,6.029,CST-1368DR,4366,4786,11644,01.174,551
2023-03-02T09:03:46,42.805,6.029,CST-1368DR,4367,4787,11645,01.174,551
2023-03-02T09:06:47,42.805,6.029,CST-1368DR,4367,4790,11653,01.171,551
2023-03-02T09:09:49,42.805,6.029,CST-1368DR,4367,4785,11641,01.175,551
2023-03-02T09:12:50,42.805,6.029,CST-1368DR,4366,4779,11628,01.180,551
2023-03-02T09:15:52,42.805,6.029,CST-1368DR,4367,4785,11641,01.175,551
2023-03-02T09:18:54,42.805,6.029,CST-1368DR,4366,4785,11642,01.175,551
2023-03-02T09:21:55,42.805,6.029,CST-1368DR,4367,4787,11644,01.174,551
2023-03-02T09:24:57,42.805,6.029,CST-1368DR,4366,4781,11633,01.178,551
2023-03-02T09:27:58,42.805,6.029,CST-1368DR,4366,4780,11631,01.178,551
2023-03-02T09:31:00,42.805,6.029,CST-1368DR,4367,4795,11664,01.167,551
2023-03-02T09:34:01,42.805,6.029,CST-1368DR,4366,4787,11647,01.173,551
2023-03-02T09:37:03,42.805,6.029,CST-1368DR,4366,4790,11654,01.171,551
2023-03-02T09:40:05,42.805,6.029,CST-1368DR,4366,4785,11644,01.174,551
2023-03-02T09:43:06,42.805,6.029,CST-1368DR,4366,4786,11645,01.174,551
2023-03-02T09:46:08,42.805,6.029,CST-1368DR,4366,4794,11665,01.167,551
2023-03-02T09:49:09,42.805,6.029,CST-1368DR,4366,4791,11657,01.170,551
2023-03-02T09:52:11,42.805,6.029,CST-1368DR,4366,4793,11661,01.168,551
2023-03-02T09:55:13,42.805,6.029,CST-1368DR,4367,4801,11679,01.162,551
2023-03-02T09:58:14,42.805,6.029,CST-1368DR,4366,4795,11667,01.166,551
2023-03-02T10:01:16,42.805,6.029,CST-1368DR,4366,4810,11704,01.153,551
2023-03-02T10:04:17,42.805,6.029,CST-1368DR,4366,4794,11664,01.167,551
2023-03-02T10:07:19,42.805,6.029,CST-1368DR,4367,4806,11692,01.158,551
2023-03-02T10:10:20,42.805,6.029,CST-1368DR,4366,4800,11678,01.162,551
2023-03-02T10:13:22,42.805,6.029,CST-1368DR,4367,4802,11681,01.161,551
2023-03-02T10:16:24,42.805,6.029,CST-1368DR,4366,4803,11686,01.160,551
2023-03-02T10:19:25,42.805,6.029,CST-1368DR,4366,4800,11679,01.162,551
2023-03-02T10:22:27,42.805,6.029,CST-1368DR,4367,4803,11683,01.161,551
2023-03-02T10:25:28,42.805,6.029,CST-1368DR,4367,4800,11676,01.163,551
2023-03-02T10:28:30,42.805,6.029,CST-1368DR,4366,4800,11679,01.162,551
2023-03-02T10:31:31,42.805,6.029,CST-1368DR,4367,4801,11679,01.162,551
2023-03-02T10:34:33,42.805,6.029,CST-1368DR,4367,4804,11685,01.160,551
2023-03-02T10:37:35,42.805,6.029,CST-1368DR,4366,4796,11669,01.165,551
2023-03-02T10:40:36,42.805,6.029,CST-1368DR,4366,4797,11672,01.164,551
2023-03-02T10:43:38,42.805,6.029,CST-1368DR,4366,4800,11679,01.162,551
2023-03-02T10:46:39,42.805,6.029,CST-1368DR,4366,4801,11683,01.161,551
2023-03-02T10:49:41,42.805,6.029,CST-1368DR,4367,4800,11676,01.163,551
2023-03-02T10:52:42,42.805,6.029,CST-1368DR,4366,4806,11693,01.157,551
2023-03-02T10:55:44,42.805,6.029,CST-1368DR,4366,4806,11693,01.157,551
2023-03-02T10:58:46,42.805,6.029,CST-1368DR,4366,4804,11688,01.159,551
2023-03-02T11:01:47,42.805,6.029,CST-1368DR,4367,4804,11687,01.159,551
2023-03-02T11:04:49,42.805,6.029,CST-1368DR,4367,4808,11696,01.156,551
2023-03-02T11:07:50,42.805,6.029,CST-1368DR,4366,4803,11687,01.159,551
2023-03-02T11:10:52,42.805,6.029,CST-1368DR,4366,4805,11692,01.158,551
2023-03-02T11:13:54,42.805,6.029,CST-1368DR,4366,4808,11699,01.155,551
2023-03-02T11:16:55,42.805,6.029,CST-1368DR,4366,4801,11682,01.161,551
2023-03-02T11:19:57,42.805,6.029,CST-1368DR,4367,4808,11695,01.157,551
2023-03-02T11:22:58,42.805,6.029,CST-1368DR,4367,4807,11695,01.157,551
2023-03-02T11:26:00,42.805,6.029,CST-1368DR,4366,4806,11694,01.157,551
2023-03-02T11:29:01,42.805,6.029,CST-1368DR,4366,4802,11685,01.160,551
2023-03-02T11:32:03,42.805,6.029,CST-1368DR,4367,4808,11696,01.156,551
2023-03-02T11:35:05,42.805,6.029,CST-1368DR,4366,4786,11646,01.173,551
2023-03-02T11:38:06,42.805,6.029,CST-1368DR,4366,4780,11630,01.179,551
2023-03-02T11:41:08,42.805,6.029,CST-1368DR,4366,4779,11628,01.180,551
2023-03-02T11:44:09,42.805,6.029,CST-1368DR,4366,4780,11631,01.178,551
2023-03-02T11:47:11,42.805,6.029,CST-1368DR,4366,4779,11628,01.180,551
2023-03-02T11:50:12,42.805,6.029,CST-1368DR,4366,4776,11620,01.182,551
2023-03-02T11:53:14,42.805,6.029,CST-1368DR,4366,4777,11624,01.181,551
2023-03-02T11:56:16,42.805,6.029,CST-1368DR,4366,4778,11625,01.181,551
2023-03-02T11:59:17,42.805,6.029,CST-1368DR,4366,4801,11683,01.161,551
2023-03-02T12:02:19,42.805,6.029,CST-1368DR,4366,4797,11672,01.164,551
2023-03-02T12:05:20,42.805,6.029,CST-1368DR,4366,4799,11676,01.163,551
2023-03-02T12:08:22,42.805,6.029,CST-1368DR,4366,4796,11669,01.165,551
2023-03-02T12:11:24,42.805,6.029,CST-1368DR,4366,4797,11673,01.164,551
2023-03-02T12:14:25,42.805,6.029,CST-1368DR,4366,4797,11673,01.164,551
2023-03-02T12:17:27,42.805,6.029,CST-1368DR,4366,4800,11679,01.162,551
2023-03-02T12:20:28,42.805,6.029,CST-1368DR,4366,4799,11676,01.163,551
2023-03-02T12:23:30,42.805,6.029,CST-1368DR,4366,4801,11681,01.161,551
2023-03-02T12:26:31,42.805,6.029,CST-1368DR,4366,4798,11673,01.164,551
2023-03-02T12:29:33,42.805,6.029,CST-1368DR,4366,4799,11676,01.163,551
2023-03-02T12:32:35,42.805,6.029,CST-1368DR,4366,4798,11675,01.163,551
2023-03-02T12:35:36,42.805,6.029,CST-1368DR,4366,4798,11675,01.163,551
2023-03-02T12:38:38,42.805,6.029,CST-1368DR,4366,4803,11686,01.160,551
2023-03-02T12:41:39,42.805,6.029,CST-1368DR,4366,4798,11674,01.164,551
2023-03-02T12:44:41,42.805,6.029,CST-1368DR,4366,4798,11674,01.164,551
2023-03-02T12:47:42,42.805,6.029,CST-1368DR,4366,4797,11672,01.164,551
2023-03-02T12:50:44,42.805,6.029,CST-1368DR,4366,4798,11675,01.163,551
2023-03-02T12:53:46,42.805,6.029,CST-1368DR,4366,4773,11613,01.185,551
2023-03-02T12:56:47,42.805,6.029,CST-1368DR,4366,4787,11648,01.173,551
2023-03-02T12:59:49,42.805,6.029,CST-1368DR,4366,4789,11653,01.171,551
2023-03-02T13:02:50,42.805,6.029,CST-1368DR,4366,4790,11655,01.170,551
2023-03-02T13:05:52,42.805,6.029,CST-1368DR,4366,4787,11648,01.173,551
2023-03-02T13:08:53,42.805,6.029,CST-1368DR,4366,4804,11690,01.158,551
2023-03-02T13:11:55,42.805,6.029,CST-1368DR,4366,4789,11653,01.171,551
2023-03-02T13:14:57,42.805,6.029,CST-1368DR,4366,4784,11641,01.175,551
2023-03-02T13:17:58,42.805,6.029,CST-1368DR,4366,4785,11642,01.175,551
2023-03-02T13:21:00,42.805,6.029,CST-1368DR,4366,4788,11649,01.172,551
2023-03-02T13:24:01,42.805,6.029,CST-1368DR,4366,4779,11628,01.180,551
2023-03-02T13:27:03,42.805,6.029,CST-1368DR,4366,4777,11623,01.181,551
2023-03-02T13:30:05,42.805,6.029,CST-1368DR,4366,4779,11627,01.180,551
2023-03-02T13:33:06,42.805,6.029,CST-1368DR,4366,4781,11632,01.178,551
2023-03-02T13:36:08,42.805,6.029,CST-1368DR,4366,4779,11629,01.179,551
2023-03-02T13:39:09,42.805,6.029,CST-1368DR,4366,4776,11621,01.182,551
2023-03-02T13:42:11,42.805,6.029,CST-1368DR,4366,4782,11636,01.177,551
2023-03-02T13:45:12,42.805,6.029,CST-1368DR,4366,4780,11631,01.178,551
2023-03-02T13:48:14,42.805,6.029,CST-1368DR,4366,4780,11630,01.179,551
2023-03-02T13:51:16,42.805,6.029,CST-1368DR,4366,4779,11628,01.180,551
2023-03-02T13:54:17,42.805,6.029,CST-1368DR,4366,4782,11634,01.177,551
2023-03-02T13:57:19,42.805,6.029,CST-1368DR,4366,4780,11630,01.179,551
2023-03-02T14:00:20,42.805,6.029,CST-1368DR,4366,4780,11630,01.179,551
2023-03-02T14:03:22,42.805,6.029,CST-1368DR,4366,4777,11622,01.182,551
2023-03-02T14:06:24,42.805,6.029,CST-1368DR,4366,4777,11624,01.181,551
2023-03-02T14:09:25,42.805,6.029,CST-1368DR,4366,4777,11624,01.181,551
2023-03-02T14:12:27,42.805,6.029,CST-1368DR,4366,4775,11618,01.183,551
2023-03-02T14:15:28,42.805,6.029,CST-1368DR,4366,4752,11563,01.202,551
2023-03-02T14:18:30,42.805,6.029,CST-1368DR,4366,4783,11638,01.176,551
2023-03-02T14:21:31,42.805,6.029,CST-1368DR,4366,4773,11614,01.184,551
2023-03-02T14:24:33,42.805,6.029,CST-1368DR,4366,4754,11567,01.201,551
2023-03-02T14:27:35,42.805,6.029,CST-1368DR,4366,4759,11580,01.196,551
2023-03-02T14:30:36,42.805,6.029,CST-1368DR,4366,4735,11521,01.216,551
2023-03-02T14:33:38,42.805,6.029,CST-1368DR,4366,4734,11519,01.217,551
2023-03-02T14:36:39,42.805,6.029,CST-1368DR,4366,4767,11600,01.189,551
2023-03-02T14:39:41,42.805,6.029,CST-1368DR,4366,4737,11526,01.215,551
2023-03-02T14:42:42,42.805,6.029,CST-1368DR,4366,4766,11596,01.191,551
2023-03-02T14:45:44,42.805,6.029,CST-1368DR,4366,4745,11546,01.208,551
2023-03-02T14:48:46,42.805,6.029,CST-1368DR,4366,4737,11525,01.215,551
2023-03-02T14:51:47,42.805,6.029,CST-1368DR,4366,4749,11556,01.204,551
2023-03-02T14:54:49,42.805,6.029,CST-1368DR,4366,4745,11545,01.208,551
2023-03-02T14:57:50,42.805,6.029,CST-1368DR,4366,4742,11539,01.210,551
2023-03-02T15:00:52,42.805,6.029,CST-1368DR,4366,4729,11507,01.221,551
2023-03-02T15:03:54,42.805,6.029,CST-1368DR,4366,4753,11565,01.201,551
2023-03-02T15:06:55,42.805,6.029,CST-1368DR,4366,4751,11560,01.203,551
2023-03-02T15:09:57,42.805,6.029,CST-1368DR,4366,4734,11518,01.218,551
2023-03-02T15:12:58,42.805,6.029,CST-1368DR,4366,4731,11512,01.220,551
2023-03-02T15:16:00,42.805,6.029,CST-1368DR,4366,4714,11469,01.235,551
2023-03-02T15:19:01,42.805,6.029,CST-1368DR,4366,4733,11516,01.218,551
2023-03-02T15:22:03,42.805,6.029,CST-1368DR,4366,4703,11443,01.244,551
2023-03-02T15:25:05,42.805,6.029,CST-1368DR,4366,4728,11503,01.223,551
2023-03-02T15:28:06,42.805,6.029,CST-1368DR,4366,4709,11457,01.239,551
2023-03-02T15:31:08,42.805,6.029,CST-1368DR,4366,4748,11554,01.205,551
2023-03-02T15:34:09,42.805,6.029,CST-1368DR,4366,4718,11479,01.231,551
2023-03-02T15:37:11,42.805,6.029,CST-1368DR,4366,4736,11524,01.215,551
2023-03-02T15:40:12,42.805,6.029,CST-1368DR,4366,4750,11558,01.204,551
2023-03-02T15:43:14,42.805,6.029,CST-1368DR,4366,4764,11591,01.192,551
2023-03-02T15:46:16,42.805,6.029,CST-1368DR,4366,4728,11503,01.223,551
2023-03-02T15:49:17,42.805,6.029,CST-1368DR,4366,4734,11518,01.218,551
2023-03-02T15:52:19,42.805,6.029,CST-1368DR,4366,4758,11578,01.197,551
2023-03-02T15:55:20,42.805,6.029,CST-1368DR,4366,4740,11534,01.212,551
2023-03-02T15:58:22,42.805,6.029,CST-1368DR,4366,4720,11484,01.229,551
2023-03-02T16:01:23,42.805,6.029,CST-1368DR,4366,4740,11533,01.212,551
2023-03-02T16:04:25,42.805,6.029,CST-1368DR,4366,4724,11493,01.226,551
2023-03-02T16:07:27,42.805,6.029,CST-1368DR,4366,4729,11506,01.222,551
2023-03-02T16:10:28,42.805,6.029,CST-1368DR,4366,4721,11487,01.228,551
2023-03-02T16:13:30,42.805,6.029,CST-1368DR,4366,4733,11516,01.218,551
2023-03-02T16:16:31,42.805,6.029,CST-1368DR,4366,4717,11478,01.231,551
2023-03-02T16:19:33,42.805,6.029,CST-1368DR,4366,4729,11506,01.222,551
2023-03-02T16:22:35,42.805,6.029,CST-1368DR,4365,4659,11338,01.281,551
2023-03-02T16:25:36,42.805,6.029,CST-1368DR,4365,4597,11187,01.334,551
2023-03-02T16:28:38,42.805,6.029,CST-1368DR,4365,4613,11226,01.320,551
2023-03-02T16:31:39,42.805,6.029,CST-1368DR,4365,4678,11385,01.264,551
2023-03-02T16:34:41,42.805,6.029,CST-1368DR,4365,4609,11218,01.323,551
2023-03-02T16:37:42,42.805,6.029,CST-1368DR,4365,4607,11211,01.326,551